Watson Lake Airport

Airport
ICAO code: 
CYQH
Summary
ICAO Region: 
NAM
Territory: 
Location: 
Watson Lake, Yukon,
Coordinates: 
Aerial View: 
60° 6' 48.459" N, 128° 48' 57.854" W
Airport BS: 
Non Avian Wildlife Hazards to Aircraft
Airport CFIT: 
Altimeter Temperature Error Correction
Airport GND: 
Aircraft Ground De/Anti Icing
Airport RE: 
Landing on Contaminated Runways
Metar
Observation
CYQH 201100Z 30004KT 10SM -SN OVC020 M18/M20 A2943 RMK SC8 SLP033
Station
Watson Lake, Y. T.
Date/Time
2022-01-20 11:00:00
Wind direction
300°
Wind speed
04 kts
Lowest cloud amount
overcast
Temperature
-18°C
Dew point
-20°C
Humidity
84%
Weather condition
light snow

Description

Regional airport serving the town of Watson Lake, Yukon, Canada.

Climatology

Subarctic climate (Köppen climate classification Dfc) - long, usually very cold winters, and short, cool to mild summers.

Runways

Designator Length Width Surface Rops
8/26 1676 46 ASP No/No
Airport map: 
Aerial View: 

SKYbrary Partners:

Safety knowledge contributed by: